Weather in Novoye Leushino

Russia / Ivanovo Oblast     56°48′30″N   40°30′39″E
temp.,
°C
wind,
m/s
gust,
m/s
humid.,
%
clouds,
%
prec.,
mm/h
press.,
hPa
HPBL,
m
16 may, sun
sun1600:00+13ssw311960 0.0 1010316
03:00+12s310973 0.0 1010267
06:00+13ssw410947 0.0 1011386
09:00+18ssw58720 0.0 1012789
12:00+21sw585825 0.0 10131568
15:00+22sw594913 0.2 10122226
18:00+18sw510745 0.9 1013587
21:00+14ssw310945 1.0 1014215
17 may, mon
mon1700:00+12sw25960 0.0 101594
03:00+12sw229649 0.0 101636
06:00+14ssw119196 0.0 101752
09:00+19sse236889 0.0 1017562
12:00+23sse2350100 0.0 10161275
15:00+25se34466 0.0 10151483
18:00+23ese376164 0.0 1014447
21:00+17e312915 0.4 1014247
18 may, tue
tue1800:00+15se39960 0.1 1014164
03:00+14se38935 0.1 1014129
06:00+15ese310885 0.0 1013216
09:00+23se512515 0.0 1013572
12:00+27se6113667 0.0 10121495
15:00+28se59397 0.0 10112663
18:00+24ese5115027 0.0 1010823
21:00+20ese516683 0.0 1010643
19 may, wed
wed1900:00+19ese416725 0.0 1009474
03:00+18se51565100 0.0 1008563
06:00+17se41268100 0.0 1009521
09:00+21sse51662100 0.0 10091401
12:00+24sse71653100 0.1 10092308
15:00+19sse51573100 1.7 10091592
18:00+13sw3119272 3.8 1009455
21:00+13s312964 3.8 1009475
20 may, thu
thu2000:00+12se379960 0.0 1010193
03:00+12sse3996100 0.0 1009283
06:00+12s41289100 0.1 1009658
09:00+14ssw4982100 0.2 1008925
12:00+15sw586085 0.1 10081514
15:00+13sw5979100 0.4 1009874
18:00+14wsw611746 0.3 10111192
21:00+10wsw311840 0.3 1014495